Back to catalog

JIELONG 3 R/B

AlivePO
NORAD 58507·ROCKET BODY·🇨🇳 China

Launched Dec 5, 2023 from South China Sea Launch Area

Loading…

Next Passes (next 24 hours)

TLE

FreshSource: Space-Track

Epoch: Sep 14, 2026, 14:31 UTC

1 58507U 23190C   26257.60511874  .00018588  00000-0  34225-3 0  9993
2 58507  86.5619 209.0452 0220927 282.6858  74.9773 15.26513091152047

Track JIELONG 3 R/B in real time with AllMySat

Download on the App Store